Starlink 33816

operational
NORAD ID: 63677 Int'l Des: 2025-085 Owner: SPXS Country: US Constellation: starlink
LEOCIRCULAR

Starlink 33816について

説明を読み込み中...

リアルタイム位置

3D地球を読み込み中...

次回通過

高度履歴

Altitude vs Time

uPlot chart will show altitude changes over time

軌道要素

1 63677U 25085P 25349.83425878 .00024629 00000-0 90096-3 0 9997
2 63677 43.0011 144.6339 0001096 269.3516 90.7210 15.27601010 36144
Epoch: Dec 15, 2025 • Age: 9 hours

現在のステータス

高度 493.1 km
速度 7.62 km/s
衛星直下点 -37.10°S, 142.63°W
打ち上げ日 Apr 28, 2025
運用期間 0.6 years
タイプ internet

技術仕様

分類 Payload
質量 575.00 kg
乾燥質量 530.00 kg
総質量 575.00 kg
長さ 0.30 m
直径 4.10 m
スパン 29.00 m
形状 Box + pan
製造者 SPXS
バスタイプ Starlink V2MO
フェーズステータス In Orbit
所有者/国 SPXS/US

大規模コンステレーション

Loading constellations...